Weather History for KMLI - October, 2011

Change the Weather History Date:

Sunday, October 16, 2011

  Actual Average Record
Temperature  
Mean Temperature 52 °F 53 °F  
Max Temperature 61 °F 64 °F 88 °F (1910)
Min Temperature 43 °F 42 °F 26 °F (1952)
Degree Days  
Heating Degree Days 13 12  
Month to date heating degree days 87 157  
Since 1 July heating degree days 253 261  
Cooling Degree Days 0 0  
Month to date cooling degree days 11 11  
Year to date cooling degree days 1126 1000  
Growing Degree Days 2 (Base 50)    
Moisture  
Dew Point 38 °F    
Average Humidity 61    
Maximum Humidity 83    
Minimum Humidity 39    
Precipitation  
Precipitation 0.01 in 0.09 in 1.62 in (1877)
Month to date precipitation 0.60 1.50  
Year to date precipitation 27.66 31.75  
Snow  
Snow 0.00 in 0.00 in - ()
Month to date snowfall 0.0 0.0  
Since 1 July snowfall 0.0 0.0  
Since 1 September snowfall 0.0 0.0  
Snow Depth 0.00 in    
Sea Level Pressure  
Sea Level Pressure 29.87 in    
Wind  
Wind Speed 8 mph (WNW)    
Max Wind Speed 23 mph    
Max Gust Speed 29 mph    
Visibility 10 miles    
Events Rain    
T = Trace of Precipitation, MM = Missing Value Source: NWS Daily Summary

Daily Weather History Graph

Daily Weather History Graph

Search for Another Location

Airport or City:

Trip Planner

Search our weather history database for the weather conditions in past years. The results will help you decide how hot, cold, wet, or windy it might be!

Date:

Astronomy

Oct. 16, 2011 Rise Set
Actual Time 7:14 AM CDT 6:19 PM CDT
Civil Twilight 6:46 AM CDT 6:47 PM CDT
Nautical Twilight 6:14 AM CDT 7:19 PM CDT
Astronomical Twilight 5:42 AM CDT 7:51 PM CDT
Moon 9:02 PM CDT (10/16) 11:35 AM CDT (10/16)
Length of Visible Light 12h 00m
Length of Day
11h 05m
Waning Gibbous, 82% of the Moon is Illuminated
Oct 16
Waning Gibbous
Oct 19
Last Quarter
Oct 26
New
Nov 2
First Quarter
Nov 10
Full

Hourly Weather History & Observations

Time (CDT) Temp. Windchill Dew Point Humidity Pressure Visibility Wind Dir Wind Speed Gust Speed Precip Events Conditions
12:52 AM 46.0 °F - 39.9 °F 79% 29.84 in 10.0 mi Calm Calm - N/A   Clear
1:52 AM 48.9 °F - 37.9 °F 66% 29.81 in 10.0 mi Calm Calm - N/A   Clear
2:52 AM 48.9 °F - 37.9 °F 66% 29.78 in 10.0 mi Calm Calm - N/A   Clear
3:52 AM 44.6 °F - 37.4 °F 76% 29.78 in 10.0 mi Calm Calm - N/A   Clear
4:52 AM 52.0 °F - 39.0 °F 61% 29.76 in 10.0 mi Calm Calm - N/A   Clear
5:52 AM 51.8 °F - 39.2 °F 62% 29.80 in 10.0 mi WNW 3.5 mph - N/A   Clear
6:52 AM 50.0 °F - 43.0 °F 77% 29.79 in 10.0 mi SSE 3.5 mph - 0.00 in Rain Light Rain
7:52 AM 48.9 °F - 44.1 °F 83% 29.76 in 10.0 mi SE 6.9 mph - 0.00 in Rain Light Rain
8:52 AM 48.9 °F - 44.1 °F 83% 29.86 in 10.0 mi North 8.1 mph - 0.00 in Rain Light Rain
9:52 AM 51.1 °F - 45.0 °F 80% 29.86 in 10.0 mi Calm Calm - 0.01 in   Overcast
10:52 AM 52.0 °F - 46.0 °F 80% 29.90 in 10.0 mi West 6.9 mph - N/A   Scattered Clouds
11:52 AM 57.0 °F - 43.0 °F 59% 29.89 in 10.0 mi NW 16.1 mph 21.9 mph N/A   Clear
12:52 PM 57.0 °F - 39.9 °F 53% 29.89 in 10.0 mi NW 16.1 mph 24.2 mph N/A   Clear
1:52 PM 57.9 °F - 37.9 °F 47% 29.89 in 10.0 mi NW 18.4 mph 25.3 mph N/A   Clear
2:52 PM 57.9 °F - 36.0 °F 44% 29.90 in 10.0 mi WNW 17.3 mph 24.2 mph N/A   Clear
3:52 PM 59.0 °F - 37.4 °F 45% 29.90 in 10.0 mi WNW 12.7 mph 21.9 mph N/A   Clear
4:52 PM 60.1 °F - 35.1 °F 39% 29.90 in 10.0 mi WNW 12.7 mph 21.9 mph N/A   Clear
5:52 PM 57.9 °F - 33.1 °F 39% 29.90 in 10.0 mi WNW 13.8 mph 20.7 mph N/A   Clear
6:52 PM 51.1 °F - 35.1 °F 54% 29.91 in 10.0 mi West 6.9 mph - N/A   Clear
7:52 PM 48.9 °F - 35.1 °F 59% 29.93 in 10.0 mi West 6.9 mph - N/A   Clear
8:52 PM 46.9 °F - 34.0 °F 61% 29.94 in 10.0 mi West 6.9 mph - N/A   Clear
9:52 PM 46.4 °F 42.9 °F 33.8 °F 62% 29.94 in 10.0 mi West 6.9 mph - N/A   Clear
10:52 PM 45.0 °F 41.2 °F 33.1 °F 63% 29.96 in 10.0 mi West 6.9 mph - N/A   Clear
11:52 PM 43.0 °F 37.7 °F 32.0 °F 65% 29.96 in 10.0 mi West 9.2 mph - N/A   Clear